Simultaneous Nadir Overpasses (SNOs) Predictions

Prediction of SNOs between AQUA and TERRA Satellite Orbit:

Table of predicted SNOs for the next 14.0 days since TLE Epoch: 9/2/2023
Index Date (AQUA) Time (AQUA) Lat,Lon (AQUA) SZA (AQUA ) Date (TERRA) Time (TERRA) Lat,Lon (TERRA) SZA (TERRA ) Distance(km) Time Diff (sec)
1 09/03/2023 06:23:10 -74.28, -98.48 113.42 09/03/2023 06:24:15 -74.23, -95.46 113.48 91.32 65
2 09/03/2023 07:12:33 74.18, 69.40 66.49 09/03/2023 07:13:39 74.11, 71.93 66.42 77.34 66
3 09/03/2023 08:01:55 -74.16,-122.90 113.52 09/03/2023 08:03:01 -74.09,-120.47 113.60 74.38 66
4 09/03/2023 08:51:17 74.01, 45.10 66.34 09/03/2023 08:52:25 73.97, 46.93 66.30 56.32 68
5 09/03/2023 09:40:40 -73.99,-147.21 113.67 09/03/2023 09:41:48 -73.94,-145.48 113.72 53.43 68
6 09/03/2023 10:30:03 73.89, 20.67 66.25 09/03/2023 10:31:12 73.82, 21.92 66.18 39.48 69
7 09/03/2023 11:19:25 -73.82,-171.52 113.82 09/03/2023 11:20:35 -73.80,-170.48 113.84 32.50 70
8 09/03/2023 12:08:48 73.72, -3.65 66.10 09/03/2023 12:09:59 73.68, -3.07 66.05 18.45 71
9 09/03/2023 12:58:11 -73.70, 164.04 113.92 09/03/2023 12:59:22 -73.65, 164.53 113.96 15.96 71
10 09/03/2023 13:47:34 73.60, -28.09 66.00 09/03/2023 13:48:45 73.59, -27.96 65.99 4.28 71
11 09/03/2023 14:36:57 -73.58, 139.60 114.01 09/03/2023 14:38:08 -73.56, 139.65 114.03 2.33 71
12 09/03/2023 15:26:21 73.53, -52.64 65.95 09/03/2023 15:27:30 73.54, -52.73 65.97 3.34 69
13 09/03/2023 16:15:45 -73.56, 114.94 114.00 09/03/2023 16:16:52 -73.57, 114.99 113.99 2.02 67
14 09/03/2023 17:05:10 73.56, -77.42 66.02 09/03/2023 17:06:14 73.56, -77.39 66.01 1.25 64
15 09/03/2023 17:54:33 -73.55, 90.27 113.99 09/03/2023 17:55:37 -73.53, 90.22 114.01 2.24 64
16 09/03/2023 18:43:58 73.55,-102.08 66.02 09/03/2023 18:44:58 73.57,-102.05 66.04 2.60 60
17 09/03/2023 19:33:21 -73.53, 65.61 113.99 09/03/2023 19:34:21 -73.54, 65.56 113.97 2.24 60
18 09/03/2023 20:22:46 73.53,-126.75 66.03 09/03/2023 20:23:43 73.53,-126.82 66.03 2.19 57
19 09/03/2023 21:12:10 -73.57, 40.83 113.92 09/03/2023 21:13:05 -73.56, 40.90 113.94 2.41 55
20 09/03/2023 22:01:34 73.51,-151.42 66.04 09/03/2023 22:02:27 73.54,-151.48 66.07 3.30 53
21 09/03/2023 22:50:58 -73.55, 16.16 113.92 09/03/2023 22:51:49 -73.57, 16.24 113.90 3.09 51
22 09/03/2023 23:40:23 73.55,-176.19 66.10 09/03/2023 23:41:11 73.55,-176.14 66.10 1.73 48
23 09/04/2023 00:29:46 -73.53, -8.50 113.91 09/04/2023 00:30:34 -73.53, -8.53 113.91 1.18 48
24 09/04/2023 01:19:11 73.54, 159.14 66.11 09/04/2023 01:19:56 73.51, 159.09 66.09 3.28 45
25 09/04/2023 02:08:34 -73.52, -33.17 113.90 09/04/2023 02:09:18 -73.54, -33.19 113.88 2.48 44
26 09/04/2023 02:57:59 73.52, 134.47 66.12 09/04/2023 02:58:40 73.52, 134.43 66.12 1.41 41
27 09/04/2023 03:47:23 -73.55, -57.95 113.84 09/04/2023 03:48:02 -73.55, -57.85 113.84 2.95 39
28 09/04/2023 04:36:48 73.56, 109.70 66.18 09/04/2023 04:37:24 73.53, 109.77 66.16 3.45 36
29 09/04/2023 05:26:11 -73.54, -82.61 113.83 09/04/2023 05:26:47 -73.51, -82.62 113.86 3.14 36
30 09/04/2023 06:15:36 73.54, 85.03 66.19 09/04/2023 06:16:08 73.54, 85.11 66.20 2.53 32
31 09/04/2023 07:04:59 -73.52,-107.28 113.82 09/04/2023 07:05:31 -73.52,-107.28 113.82 0.17 32
32 09/04/2023 07:54:24 73.52, 60.36 66.20 09/04/2023 07:54:53 73.50, 60.34 66.18 2.45 29
33 09/04/2023 08:43:47 -73.51,-131.94 113.81 09/04/2023 08:44:15 -73.53,-131.94 113.78 2.99 28
34 09/04/2023 09:33:12 73.51, 35.70 66.21 09/04/2023 09:33:37 73.51, 35.68 66.22 0.96 25
35 09/04/2023 10:22:35 -73.49,-156.61 113.80 09/04/2023 10:23:00 -73.49,-156.71 113.80 3.25 25
36 09/04/2023 11:12:01 73.54, 10.92 66.27 09/04/2023 11:12:21 73.53, 11.02 66.25 3.70 20
37 09/04/2023 12:01:24 -73.53, 178.61 113.74 09/04/2023 12:01:44 -73.50, 178.63 113.76 2.58 20
38 09/04/2023 12:50:49 73.53, -13.75 66.28 09/04/2023 12:51:05 73.54, -13.64 66.29 3.40 16
39 09/04/2023 13:40:12 -73.51, 153.94 113.73 09/04/2023 13:40:28 -73.51, 153.96 113.72 0.81 16
40 09/04/2023 14:29:37 73.51, -38.41 66.29 09/04/2023 14:29:50 73.50, -38.42 66.28 1.85 13
41 09/04/2023 15:19:00 -73.49, 129.28 113.72 09/04/2023 15:19:13 -73.47, 129.19 113.74 3.49 13
42 09/04/2023 16:08:25 73.50, -63.08 66.30 09/04/2023 16:08:34 73.51, -63.08 66.31 1.18 9
43 09/04/2023 16:57:48 -73.48, 104.61 113.71 09/04/2023 16:57:57 -73.49, 104.53 113.70 2.53 9
44 09/04/2023 17:47:13 73.48, -87.75 66.31 09/04/2023 17:47:19 73.47, -87.85 66.30 3.54 6
45 09/04/2023 18:36:37 -73.52, 79.83 113.65 09/04/2023 18:36:41 -73.50, 79.87 113.67 2.41 4
46 09/04/2023 19:26:01 73.47,-112.41 66.32 09/04/2023 19:26:03 73.48,-112.51 66.33 3.23 2
47 09/04/2023 20:15:25 -73.50, 55.17 113.64 09/04/2023 20:15:25 -73.51, 55.21 113.63 1.75 0
48 09/04/2023 21:04:50 73.50,-137.19 66.38 09/04/2023 21:04:47 73.49,-137.17 66.37 1.67 3
49 09/04/2023 21:54:13 -73.48, 30.50 113.63 09/04/2023 21:54:10 -73.47, 30.44 113.64 2.58 3
50 09/04/2023 22:43:38 73.49,-161.86 66.39 09/04/2023 22:43:31 73.50,-161.83 66.41 1.80 7
51 09/04/2023 23:33:01 -73.47, 5.83 113.62 09/04/2023 23:32:54 -73.48, 5.78 113.61 1.97 7
52 09/05/2023 00:22:26 73.47, 173.47 66.40 09/05/2023 00:22:16 73.46, 173.40 66.39 2.67 10
53 09/05/2023 01:11:50 -73.51, -18.95 113.56 09/05/2023 01:11:38 -73.49, -18.88 113.57 2.67 12
54 09/05/2023 02:01:14 73.46, 148.81 66.41 09/05/2023 02:01:00 73.47, 148.74 66.43 2.68 14
55 09/05/2023 02:50:38 -73.49, -43.61 113.55 09/05/2023 02:50:22 -73.50, -43.54 113.53 2.66 16
56 09/05/2023 03:40:03 73.49, 124.03 66.47 09/05/2023 03:39:44 73.48, 124.08 66.46 1.99 19
57 09/05/2023 04:29:26 -73.47, -68.28 113.54 09/05/2023 04:29:07 -73.46, -68.31 113.55 1.77 19
58 09/05/2023 05:18:51 73.48, 99.36 66.48 09/05/2023 05:18:28 73.49, 99.42 66.50 2.52 23
59 09/05/2023 06:08:14 -73.46, -92.95 113.53 09/05/2023 06:07:51 -73.47, -92.97 113.51 1.66 23
60 09/05/2023 06:57:39 73.46, 74.69 66.49 09/05/2023 06:57:13 73.45, 74.64 66.48 1.85 26
61 09/05/2023 07:47:03 -73.50,-117.73 113.46 09/05/2023 07:46:35 -73.48,-117.63 113.48 3.24 28
62 09/05/2023 08:36:27 73.45, 50.02 66.50 09/05/2023 08:35:57 73.46, 49.98 66.52 2.26 30
63 09/05/2023 09:25:51 -73.48,-142.40 113.45 09/05/2023 09:25:19 -73.49,-142.30 113.44 3.55 32
64 09/05/2023 10:15:16 73.48, 25.24 66.57 09/05/2023 10:14:41 73.47, 25.32 66.56 2.63 35
65 09/05/2023 11:04:38 -73.46,-167.06 113.44 09/05/2023 11:04:03 -73.45,-167.07 113.46 1.24 35
66 09/05/2023 11:54:03 73.47, 0.58 66.58 09/05/2023 11:53:24 73.49, 0.66 66.59 3.27 39
67 09/05/2023 12:43:26 -73.45, 168.27 113.43 09/05/2023 12:42:47 -73.47, 168.27 113.42 1.73 39
68 09/05/2023 13:32:51 73.45, -24.09 66.59 09/05/2023 13:32:09 73.44, -24.11 66.58 1.16 42
69 09/05/2023 14:22:14 -73.43, 143.60 113.42 09/05/2023 14:21:32 -73.42, 143.50 113.43 3.32 42
70 09/05/2023 15:11:39 73.44, -48.76 66.60 09/05/2023 15:10:53 73.46, -48.77 66.61 2.02 46
71 09/05/2023 16:01:02 -73.42, 118.93 113.41 09/05/2023 16:00:16 -73.44, 118.84 113.40 3.41 46
72 09/05/2023 16:50:28 73.47, -73.54 66.66 09/05/2023 16:49:37 73.47, -73.43 66.65 3.41 51
73 09/05/2023 17:39:51 -73.46, 94.15 113.35 09/05/2023 17:39:00 -73.45, 94.18 113.36 1.33 51
74 09/05/2023 18:29:16 73.46, -98.21 66.67 09/05/2023 18:28:22 73.43, -98.20 66.64 3.85 54
75 09/05/2023 19:18:39 -73.44, 69.49 113.34 09/05/2023 19:17:44 -73.46, 69.52 113.32 2.13 55
76 09/05/2023 20:08:04 73.44,-122.87 66.68 09/05/2023 20:07:06 73.44,-122.87 66.67 0.95 58
77 09/05/2023 20:57:27 -73.43, 44.82 113.33 09/05/2023 20:56:29 -73.42, 44.75 113.34 2.44 58
78 09/05/2023 21:46:52 73.43,-147.54 66.69 09/05/2023 21:45:50 73.45,-147.53 66.71 2.05 62
79 09/05/2023 22:36:15 -73.41, 20.15 113.32 09/05/2023 22:35:13 -73.43, 20.09 113.30 2.76 62
80 09/05/2023 23:25:40 73.41,-172.21 66.70 09/05/2023 23:24:35 73.41,-172.30 66.69 2.96 65
81 09/06/2023 00:15:04 -73.45, -4.63 113.26 09/06/2023 00:13:57 -73.44, -4.57 113.27 1.97 67
82 09/06/2023 01:04:28 73.40, 163.12 66.71 09/06/2023 01:03:19 73.42, 163.04 66.73 3.25 69
83 09/06/2023 01:53:52 -73.43, -29.30 113.25 09/06/2023 01:52:41 -73.45, -29.24 113.23 2.72 71
84 09/06/2023 02:43:16 73.38, 138.45 66.72 09/06/2023 02:42:04 73.38, 138.27 66.71 5.92 72
85 09/06/2023 03:32:39 -73.37, -53.86 113.29 09/06/2023 03:31:27 -73.36, -54.11 113.30 8.29 72
86 09/06/2023 04:22:02 73.26, 114.00 66.63 09/06/2023 04:20:51 73.23, 113.29 66.59 23.34 71
87 09/06/2023 05:11:25 -73.25, -78.31 113.38 09/06/2023 05:10:14 -73.21, -79.09 113.42 25.62 71
88 09/06/2023 06:00:47 73.09, 89.66 66.48 09/06/2023 05:59:38 73.08, 88.31 66.47 43.68 69
89 09/06/2023 06:50:10 -73.07,-102.65 113.53 09/06/2023 06:49:01 -73.06,-104.07 113.54 45.89 69
90 09/06/2023 07:39:32 72.92, 65.30 66.33 09/06/2023 07:38:25 72.93, 63.33 66.35 64.35 67
91 09/06/2023 08:28:56 -72.95,-127.11 113.63 09/06/2023 08:27:48 -72.91,-129.04 113.66 63.09 68
92 09/06/2023 09:18:18 72.80, 40.84 66.23 09/06/2023 09:17:12 72.78, 38.37 66.23 81.51 66
93 09/06/2023 10:07:41 -72.78,-151.47 113.77 09/06/2023 10:06:35 -72.77,-154.01 113.78 83.54 66



Historial Predications of SNOs between AQUA and TERRA
